• In Uzbekistan
  • List of Countries
  • For 7 days
  • Water Temperature
  • Satellite Maps
  • Weather Map
  • Weather Widgets
  • user-avatar
    Login

    Hourly Weather Witrylow

    Today, 22 September, Saturday

    Time Temperature Precipitation Wind Pressure Humidity
    00:00 +18°C° 0 mm 4 mps 734 mmHg 63%
    01:00 +18°C° 0 mm 4 mps 734 mmHg 60%
    02:00 +18°C° 0 mm 4 mps 734 mmHg 59%
    03:00 +18°C° 0 mm 4 mps 734 mmHg 57%
    04:00 +18°C° 0 mm 4 mps 734 mmHg 55%
    05:00 +17°C° 0.3 mm 4 mps 735 mmHg 65%
    06:00 +15°C° 0.3 mm 4 mps 736 mmHg 74%
    07:00 +14°C° 0.3 mm 5 mps 736 mmHg 83%
    08:00 +14°C° 0.6 mm 4 mps 737 mmHg 85%
    09:00 +13°C° 0.6 mm 3 mps 737 mmHg 86%
    10:00 +12°C° 0.6 mm 3 mps 738 mmHg 88%
    11:00 +13°C° 0.9 mm 2 mps 738 mmHg 88%
    12:00 +13°C° 0.9 mm 2 mps 738 mmHg 89%
    13:00 +13°C° 0.9 mm 1 mps 738 mmHg 89%
    14:00 +13°C° 0.2 mm 1 mps 738 mmHg 87%
    15:00 +13°C° 0.2 mm 1 mps 738 mmHg 85%
    16:00 +13°C° 0.2 mm 1 mps 738 mmHg 83%
    17:00 +12°C° 0 mm 2 mps 738 mmHg 85%
    18:00 +10°C° 0 mm 2 mps 738 mmHg 88%
    19:00 +9°C° 0 mm 2 mps 738 mmHg 90%
    20:00 +9°C° 0 mm 2 mps 738 mmHg 89%
    21:00 +9°C° 0 mm 2 mps 738 mmHg 88%
    22:00 +9°C° 0 mm 2 mps 739 mmHg 86%
    23:00 +9°C° 0 mm 2 mps 739 mmHg 86%

    Tomorrow, 23 September, Sunday

    Time Temperature Precipitation Wind Pressure Humidity
    00:00 +9°C° 0 mm 2 mps 739 mmHg 87%
    01:00 +9°C° 0 mm 2 mps 739 mmHg 87%
    02:00 +9°C° 0 mm 2 mps 738 mmHg 87%
    03:00 +9°C° 0 mm 2 mps 738 mmHg 88%
    04:00 +8°C° 0 mm 2 mps 738 mmHg 88%
    05:00 +9°C° 0 mm 2 mps 738 mmHg 87%
    06:00 +10°C° 0 mm 3 mps 738 mmHg 86%
    07:00 +10°C° 0 mm 3 mps 738 mmHg 85%
    08:00 +12°C° 0 mm 3 mps 738 mmHg 79%
    09:00 +13°C° 0 mm 4 mps 738 mmHg 73%
    10:00 +14°C° 0 mm 4 mps 738 mmHg 67%
    11:00 +15°C° 0 mm 4 mps 737 mmHg 66%
    12:00 +15°C° 0 mm 4 mps 737 mmHg 65%
    13:00 +15°C° 0 mm 4 mps 737 mmHg 64%
    14:00 +15°C° 0 mm 4 mps 736 mmHg 65%
    15:00 +16°C° 0 mm 3 mps 736 mmHg 67%
    16:00 +16°C° 0 mm 3 mps 735 mmHg 68%
    17:00 +14°C° 0 mm 3 mps 735 mmHg 70%
    18:00 +14°C° 0 mm 4 mps 734 mmHg 71%
    19:00 +13°C° 0 mm 4 mps 734 mmHg 73%
    20:00 +14°C° 0 mm 5 mps 733 mmHg 69%
    21:00 +14°C° 0 mm 6 mps 732 mmHg 65%
    22:00 +14°C° 0 mm 7 mps 731 mmHg 61%
    23:00 +14°C° 0.2 mm 7 mps 730 mmHg 66%

    Day after tomorrow, 24 September, Monday

    Time Temperature Precipitation Wind Pressure Humidity
    00:00 +13°C° 0.2 mm 8 mps 728 mmHg 71%
    01:00 +13°C° 0.2 mm 8 mps 727 mmHg 76%
    02:00 +13°C° 1.1 mm 9 mps 726 mmHg 77%
    03:00 +15°C° 1.1 mm 9 mps 725 mmHg 78%
    04:00 +15°C° 1.1 mm 9 mps 724 mmHg 80%
    05:00 +13°C° 0.9 mm 10 mps 724 mmHg 81%
    06:00 +12°C° 0.9 mm 10 mps 725 mmHg 81%
    07:00 +11°C° 0.9 mm 11 mps 726 mmHg 82%
    08:00 +9°C° 0.1 mm 10 mps 728 mmHg 82%
    09:00 +8°C° 0.1 mm 9 mps 730 mmHg 81%
    10:00 +7°C° 0.1 mm 8 mps 732 mmHg 80%
    11:00 +9°C° 0.3 mm 8 mps 733 mmHg 79%
    12:00 +9°C° 0.3 mm 8 mps 734 mmHg 78%
    13:00 +8°C° 0.3 mm 9 mps 735 mmHg 76%
    14:00 +9°C° 0.2 mm 8 mps 736 mmHg 72%
    15:00 +9°C° 0.2 mm 8 mps 736 mmHg 67%
    16:00 +9°C° 0.2 mm 7 mps 737 mmHg 63%
    17:00 +8°C° 0 mm 7 mps 737 mmHg 64%
    18:00 +8°C° 0 mm 6 mps 738 mmHg 65%
    19:00 +7°C° 0 mm 5 mps 738 mmHg 66%
    20:00 +7°C° 0 mm 6 mps 739 mmHg 68%
    21:00 +7°C° 0 mm 6 mps 739 mmHg 71%
    22:00 +5°C° 0 mm 6 mps 740 mmHg 73%
    23:00 +5°C° 0 mm 6 mps 740 mmHg 74%

    25 September, Tuesday

    Time Temperature Precipitation Wind Pressure Humidity
    00:00 +5°C° 0 mm 5 mps 741 mmHg 76%
    01:00 +5°C° 0 mm 5 mps 741 mmHg 77%
    02:00 +5°C° 0 mm 5 mps 742 mmHg 78%
    03:00 +4°C° 0 mm 4 mps 742 mmHg 80%
    04:00 +4°C° 0 mm 4 mps 743 mmHg 81%
    05:00 +3°C° 0 mm 5 mps 743 mmHg 79%
    06:00 +5°C° 0 mm 5 mps 744 mmHg 77%
    07:00 +5°C° 0 mm 5 mps 744 mmHg 75%
    08:00 +5°C° 0.1 mm 6 mps 745 mmHg 70%
    09:00 +7°C° 0.1 mm 6 mps 745 mmHg 65%
    10:00 +9°C° 0.1 mm 7 mps 746 mmHg 59%
    11:00 +9°C° 0.1 mm 7 mps 746 mmHg 56%
    12:00 +10°C° 0.1 mm 6 mps 746 mmHg 53%
    13:00 +10°C° 0.1 mm 6 mps 746 mmHg 50%
    14:00 +10°C° 0.1 mm 6 mps 746 mmHg 52%
    15:00 +9°C° 0.1 mm 5 mps 746 mmHg 54%
    16:00 +10°C° 0.1 mm 4 mps 746 mmHg 56%
    17:00 +9°C° 0 mm 3 mps 747 mmHg 60%
    18:00 +7°C° 0 mm 3 mps 747 mmHg 63%
    19:00 +6°C° 0 mm 2 mps 747 mmHg 67%
    20:00 +5°C° 0 mm 2 mps 747 mmHg 67%
    21:00 +5°C° 0 mm 2 mps 747 mmHg 68%
    22:00 +4°C° 0 mm 2 mps 747 mmHg 69%
    23:00 +4°C° 0 mm 3 mps 747 mmHg 68%

    26 September, Wednesday

    Time Temperature Precipitation Wind Pressure Humidity
    00:00 +4°C° 0 mm 3 mps 747 mmHg 68%
    01:00 +4°C° 0 mm 4 mps 747 mmHg 67%
    02:00 +4°C° 0 mm 4 mps 746 mmHg 67%
    03:00 +4°C° 0 mm 4 mps 746 mmHg 66%
    04:00 +3°C° 0 mm 5 mps 746 mmHg 66%
    05:00 +5°C° 0 mm 5 mps 746 mmHg 65%
    06:00 +4°C° 0 mm 6 mps 745 mmHg 63%
    07:00 +5°C° 0 mm 6 mps 745 mmHg 62%
    08:00 +7°C° 0.1 mm 6 mps 745 mmHg 64%
    09:00 +8°C° 0.1 mm 6 mps 745 mmHg 66%
    10:00 +9°C° 0.1 mm 7 mps 745 mmHg 68%
    11:00 +9°C° 0.3 mm 6 mps 745 mmHg 72%
    12:00 +9°C° 0.3 mm 6 mps 744 mmHg 76%
    13:00 +9°C° 0.3 mm 5 mps 744 mmHg 80%
    14:00 +9°C° 0.1 mm 5 mps 744 mmHg 81%
    15:00 +10°C° 0.1 mm 4 mps 744 mmHg 81%
    16:00 +10°C° 0.1 mm 4 mps 744 mmHg 82%
    17:00 +9°C° 0 mm 3 mps 745 mmHg 86%
    18:00 +8°C° 0 mm 2 mps 745 mmHg 89%
    19:00 +8°C° 0 mm 2 mps 745 mmHg 93%
    20:00 +8°C° 0 mm 2 mps 745 mmHg 93%
    21:00 +9°C° 0 mm 1 mps 746 mmHg 93%
    22:00 +9°C° 0 mm 1 mps 746 mmHg 93%
    23:00 +9°C° 0 mm 1 mps 746 mmHg 93%

    27 September, Thursday

    Time Temperature Precipitation Wind Pressure Humidity
    00:00 +9°C° 0 mm 1 mps 746 mmHg 93%
    01:00 +8°C° 0 mm 1 mps 746 mmHg 93%
    02:00 +8°C° 0 mm 1 mps 745 mmHg 93%
    03:00 +8°C° 0 mm 1 mps 745 mmHg 93%
    04:00 +7°C° 0 mm 1 mps 745 mmHg 93%
    05:00 +7°C° 0 mm 2 mps 745 mmHg 91%
    06:00 +7°C° 0 mm 2 mps 745 mmHg 89%
    07:00 +8°C° 0 mm 2 mps 745 mmHg 87%
    08:00 +10°C° 0 mm 3 mps 745 mmHg 79%
    09:00 +12°C° 0 mm 3 mps 744 mmHg 72%
    10:00 +14°C° 0 mm 4 mps 744 mmHg 64%
    11:00 +15°C° 0 mm 4 mps 744 mmHg 59%
    12:00 +17°C° 0 mm 4 mps 743 mmHg 55%
    13:00 +17°C° 0 mm 5 mps 742 mmHg 51%
    14:00 +17°C° 0 mm 4 mps 742 mmHg 53%
    15:00 +17°C° 0 mm 4 mps 741 mmHg 56%
    16:00 +15°C° 0 mm 4 mps 741 mmHg 59%
    17:00 +14°C° 0 mm 4 mps 740 mmHg 61%
    18:00 +13°C° 0 mm 5 mps 740 mmHg 63%
    19:00 +12°C° 0 mm 5 mps 740 mmHg 65%
    20:00 +10°C° 0 mm 5 mps 740 mmHg 66%
    21:00 +11°C° 0 mm 4 mps 740 mmHg 67%
    22:00 +10°C° 0 mm 4 mps 740 mmHg 68%
    23:00 +10°C° 0 mm 4 mps 739 mmHg 69%
    Show more